Flag for West Bank Weather past 2 weeks in Hebron, West Bank

Now
59 °F

Clear.


Feels Like: 59 °F
Forecast: 54 / 75 °F
Wind: 5 mph from Southeast

Location: Ben Gurion International Airport

Current Time: Apr 20, 2015 at 2:58:14 AM

Latest Report: Apr 20, 2015 at 2:20 AM


Visibility: 10 mi

Pressure: 29.98 "Hg

Humidity: 82%

Dew point: 54 °F

Location of HebronLocation

Historic Weather in Hebron — Graph

°F

Hebron temperature yesterday

Maximum temperature yesterday: 75 °F (at 11:50 AM)
Minimum temperature yesterday: 54 °F (at 4:50 AM)
Average temperature yesterday: 64 °F

Past Weeks' High & Low Weather Summary

 TemperatureHumidityPressure
High100 °F (Apr 8, 3:20 PM)94% (Apr 7, 8:20 AM)30.30 "Hg (Apr 7, 8:20 AM)
Low46 °F (Apr 12, 1:50 PM)9% (Apr 8, 3:50 PM)29.56 "Hg (Apr 9, 2:20 AM)
Average63 °F66%30.02 "Hg
* Reported Apr 5 1:20 AM — Apr 20 1:20 AM, Hebron, Weather by CustomWeather, © 2015

Note: Actual official high and low records may vary slightly from our data, if they occured in-between our weather recording intervals... More about our weather records

Advertising

Hebron weather history for previous 24 hours

 ConditionsComfort  
Time TempWeatherWind HumidityBarometerVisibility
1:20 AM
Mon, Apr 20
61 °FClear.3 mph77%30.01 "Hg10 mi
12:50 AM61 °FClear.3 mph77%30.01 "Hg10 mi
12:20 AM61 °FClear.2 mph83%30.04 "Hg10 mi
11:50 PM
Sun, Apr 19
61 °FClear.2 mph83%30.04 "Hg10 mi
11:20 PM61 °FClear.1 mph77%30.04 "Hg10 mi
10:50 PM63 °FClear.2 mph73%30.04 "Hg10 mi
10:20 PM63 °FClear.2 mph77%30.04 "Hg10 mi
9:50 PM63 °FClear.3 mph77%30.04 "Hg10 mi
9:20 PM64 °FClear.6 mph73%30.04 "Hg10 mi
8:50 PM64 °FClear.5 mph68%30.04 "Hg10 mi
8:20 PM64 °FClear.5 mph73%30.04 "Hg10 mi
7:50 PM66 °FSunny.8 mph64%30.04 "Hg10 mi
7:20 PM66 °FSunny.7 mph64%30.04 "Hg10 mi
6:50 PM68 °FSunny.7 mph64%30.04 "Hg10 mi
6:20 PM70 °FSunny.10 mph60%30.04 "Hg10 mi
5:50 PM70 °FSunny.10 mph57%30.04 "Hg10 mi
5:20 PM73 °FSunny.10 mph50%30.04 "Hg10 mi
4:50 PM73 °FSunny.9 mph47%30.04 "Hg10 mi
4:20 PM73 °FSunny.10 mph50%30.04 "Hg10 mi
3:50 PM73 °FSunny.10 mph53%30.04 "Hg10 mi
3:20 PM73 °FSunny.9 mph57%30.04 "Hg10 mi
2:50 PM72 °FSunny.12 mph57%30.07 "Hg10 mi
2:20 PM72 °FSunny.12 mph57%30.07 "Hg10 mi
1:50 PM73 °FPassing clouds.10 mph53%30.07 "HgN/A
1:20 PM73 °FSunny.9 mph50%30.07 "Hg10 mi
12:50 PM73 °FPassing clouds.7 mph50%30.09 "HgN/A
12:20 PM75 °FPassing clouds.8 mph47%30.09 "HgN/A
11:50 AM75 °FSunny.3 mph31%30.09 "Hg10 mi
11:20 AM73 °FSunny.2 mph36%30.12 "Hg10 mi
10:50 AM72 °FSunny.1 mph41%30.12 "Hg10 mi
10:20 AM68 °FSunny.3 mph49%30.12 "Hg10 mi
9:50 AM68 °FSunny.2 mph53%30.12 "Hg10 mi
9:20 AM66 °FSunny.2 mph60%30.12 "Hg10 mi
8:50 AM64 °FPassing clouds.1 mph56%30.12 "HgN/A
8:20 AM59 °FSunny.2 mph59%30.12 "Hg10 mi
7:50 AM57 °FSunny.3 mph63%30.12 "Hg10 mi
7:20 AM55 °FSunny.5 mph67%30.12 "Hg10 mi
6:20 AM54 °FPassing clouds.3 mph72%30.12 "HgN/A
5:50 AM54 °FPassing clouds.5 mph77%30.09 "HgN/A
5:20 AM54 °FPassing clouds.1 mph82%30.09 "HgN/A
4:50 AM54 °FPassing clouds.2 mph82%30.09 "HgN/A
4:20 AM55 °FPassing clouds.2 mph82%30.09 "HgN/A
3:50 AM55 °FPassing clouds.3 mph82%30.09 "HgN/A
3:20 AM55 °FPassing clouds.3 mph82%30.12 "HgN/A
2:50 AM55 °FPassing clouds.3 mph88%30.12 "HgN/A
2:20 AM55 °FClear.1 mph88%30.12 "Hg10 mi
Weather by CustomWeather, © 2015

See weather overviewHow to use our weather pages